Regional Weather Roundup
Issued by NWS

Home | Current Version | Previous Version | Text Only | Print | Product List | Glossary On
Versions: 1 2 3 4 5 6 7 8 9 10 11 12 13 14 15 16 17 18 19 20 21 22 23 24 25 26 27 28 29 30 31 32 33 34 35 36 37 38 39 40 41 42 43 44 45 46 47 48 49 50
000
ASPQ40 PGUM 010514
RWRPQ
WEATHER ROUNDUP FOR THE MARIANAS AND MICRONESIA
NATIONAL WEATHER SERVICE TIYAN GU
300 PM CHST WED JUL 01 2015

GUZ001>004-010600-
MARIANA ISLANDS-

CITY           SKY/WX    TMP DP  RH WIND       PRES   REMARKS
GUAM AIRPORT   MOSUNNY   90  73  58 NE13      29.78F HX  98
ANDERSEN AFB   PTSUNNY   86  75  70 NE13      29.79F HX  95
ROTA AIRPORT   NOT AVBL
TINIAN AP      NOT AVBL
SAIPAN AP      NOT AVBL

$$

PMZ161-010600-
REPUBLIC OF PALAU-

CITY           SKY/WX    TMP DP  RH WIND       PRES   REMARKS
KOROR AP       CLOUDY    86  77  74 SW18G30   29.80F HX  97
KOROR WSO      CLOUDY    86  75  70 W17       29.79F HX  95

$$

PMZ171>174-010600-
FEDERATED STATES OF MICRONESIA-

CITY           SKY/WX    TMP DP  RH WIND       PRES   REMARKS
YAP AIRPORT    CLOUDY    82  75  78 SW9       29.79F
CHUUK AP       LGT RAIN  81  77  89 SW10      29.68F
POHNPEI AP     NOT AVBL
POHNPEI WSO    CLOUDY    82  77  83 S6        29.71F HX  91
KOSRAE AP      NOT AVBL

$$

PMZ181-010600-
REPUBLIC OF THE MARSHALL ISLANDS-

CITY           SKY/WX    TMP DP  RH WIND       PRES   REMARKS
KWAJALEIN AP   SUNNY     86  75  70 E12       29.74S HX  95
MAJURO AP      PTSUNNY   81  77  89 W9        29.70F
MAJURO WSO     LGT RAIN  79  77  94 W12       29.70F

$$




USA.gov is the U.S. government's official web portal to all federal, state and local government web resources and services.